Alessandro Giacobazzi

C.S. AERONAUTICA MILITARE
01-02-1996


Informazioni sul tesseramento aggiornate al 2019


Condividi con
Seguici su:


È nato a Pavullo nel Frignano (Modena) il 1° febbraio 1996, 1.85x69kg
Società: Aeronautica Militare
Allenatore: Mauro Bazzani

Da sempre è abituato alle discipline di resistenza, perché fin da bambino ha praticato sci di fondo vincendo anche in gare nazionali, oltre a mountain bike, nuoto e poi dal 2010 il mezzofondo prolungato in atletica, prima con Tiberio Muracchini e quindi con Mauro Bazzani: in questo seguendo le orme della sorella maggiore Francesca, ma pure il fratello Roberto è stato un discreto ciclista su strada dilettante. Vive nella frazione di Montebonello a Pavullo nel Frignano, dove i genitori sono produttori caseari, e si allena con un gruppo che ha espresso specialisti delle siepi come Francesca Bertoni e Christine Santi, per influire in modo decisivo nella scelta dello sport preferito: “Si è creato un ambiente - racconta - in cui fare fatica è un piacere”. Dopo il diploma di ragioniere, con indirizzo amministrazione, finanze e marketing, ha intrapreso gli studi universitari in economia aziendale a Modena e qui si allena durante la settimana sotto l’occhio di Renzo Finelli. Nel 2017 ha conquistato il successo nella maratona di Torino, alla sua seconda esperienza sulla distanza, con il tempo di 2h15:25 mentre nel settembre 2018 è entrato in Aeronautica, proveniente dalla Fratellanza Modena. Nei suoi bouquet musicali non può mancare Luciano Ligabue.

Curriculum (10.000m): EJC: 2015 (6); WCCC: 2015 (77jr, 8T/U20); ECCC: 2014 (9jr, 1T/U20), 2015 (13jr, 2T/U20), 2017 (39/U23, 5T/U23), 2018 (40/U23, 10T/U23).

60 piani

Anno Data Tipo Cr. Cat. Piazz. Prestaz. Vento Città  
200923/05PMRM4 se- 2 9.7Castelfranco Emilia
 

300 piani

Anno Data Tipo Cr. Cat. Piazz. Prestaz. Vento Città  
200706/10PMEM2 se- 1 51.3San Felice Sul Panaro
200715/04PEEM3 se- 1 53.00Carpi
 

300 METRI

Anno Data Tipo Cr. Cat. Piazz. Prestaz. Vento Città  
200630/09PEEM4 se- 1 54.90San Felice Sul Panaro
200611/06PMEM1 su- 1 55.3Castelfranco Emilia
200629/04PMEM1 se- 1 56.2Carpi
 

600 METRI

Anno Data Tipo Cr. Cat. Piazz. Prestaz. Vento Città  
200923/05PMRM2 su- 1 1:48.3Castelfranco Emilia
200909/06PERM9 su- 1 1:49.38Casalmaggiore
200731/03PEEM1 se- 1 1:56.60San Felice Sul Panaro
200821/05PMRM5 su- 1 1:58.6Castelfranco Emilia
200713/05PEEM2 se- 1 1:59.91Modena
200606/05PEEM1 se- 2 2:06.01Modena
200627/05PMEM3 se- 1 2:10.4Carpi
 

800 metri

Anno Data Tipo Cr. Cat. Piazz. Prestaz. Vento Città  
201208/06PEAM2 se- 3 2:05.48Modena
201231/07PEAM8 se- 8 2:10.11Trento
201213/05PEAM9 se- 1 2:10.93Modena
201301/06PEAM8 se- 5 2:12.43Modena
 

1000 metri

Anno Data Tipo Cr. Cat. Piazz. Prestaz. Vento Città  
201110/05PMCM1 su- 1 2:42.5Modena
201124/09PECM2 se- 2 2:43.81Bologna
201203/05PMAM1 se- 1 2:45.2Modena
201103/09PECM1 su- 1 2:45.51Reggio Emilia
201330/04PMAM2 se- 1 2:46.7Modena
201111/09PECM3 su- 1 2:47.87Casalmaggiore
201113/03PMCM5 su- 1 2:48.2 Modena
201108/09PECM3 su- 1 2:48.97Misano Adriatico
201125/08PECM3 su- 1 2:49.01Cles
201003/08PECM8 se- 1 2:49.35Trento
201004/09PECM2 su- 1 2:49.50Reggio Emilia
201116/10PECM3 su- 1 2:49.54Cattolica
201124/05PECM1 su- 1 2:50.75Bologna
201112/06PECM12 se- 2 2:52.00Fidenza
201009/06PECM5 su- 1 2:52.38Casalmaggiore
201115/05PMCM2 su- 1 2:54.5Carpi
201006/07PECM1 su- 1 2:55.00Pavullo Nel Frignano
201016/05PMCM3 se- 1 2:55.1Castelfranco Emilia
201024/04PMCM2 se- 1 2:57.2Modena
200918/10PERM2 su- 1 2:59.68Castelfranco Emilia
200927/09PERM2 se- 2 3:00.03Ravenna
201014/03PECM11 su- 1 3:00.76 Modena
200903/10PERM1 se- 1 3:03.38Modena
201020/04PMCM2 su- 1 3:04.1Modena
200904/08PERM7 se- 1 3:08.41Trento
200916/06PERM2 su- 1 3:09.19Scandiano
200907/07PERM2 su- 1 3:10.75Castelnovo Monti
200909/05PERM1 su- 1 3:10.85 Modena
200928/07PERM9 se- 1 3:11.15Trento
200919/04PERM1 su- 1 3:12.68Castelfranco Emilia
200828/09PERM5 se- 1 3:13.28Forli
200818/10PERM2 su- 1 3:15.37San Felice Sul Panaro
200904/04PMRM2 su- 1 3:16.3 San Felice Sul Panaro
200813/09PERM2 su- 1 3:16.65Carpi
200810/05PMRM4 su- 1 3:16.8Modena
200825/04PMRM2 su- 1 3:18.0Bologna
200810/06PERM3 su- 1 3:19.23Scandiano
200820/04PERM3 su- 1 3:22.79Carpi
200821/05PMRM1 su- 1 3:23.7Modena
200805/04PERM2 su- 1 3:23.91San Felice Sul Panaro
 

1500 metri

Anno Data Tipo Cr. Cat. Piazz. Prestaz. Vento Città  
201729/06PEPM3 se- 1 4:03.19Bologna
201219/06PEAM6 se- 1 4:11.90Modena
201229/04PEAM1 su- 1 4:13.15Castelfranco Emilia
201225/04PEAM11 se- 2 4:15.41Modena
201229/06PEAM14 se- 3 4:17.88Ferrara
201226/05PEAM1 su- 1 4:18.47Bologna
201325/04PEAM16 se- 2 4:19.34Modena
201231/05PEAM10 su- 1 4:19.36Parma
201219/05PEAM10 se- 1 4:19.97Modena
201208/09PEAM6 su- 1 4:20.65Reggio Emilia
201322/06PEAM11 se- 1 4:25.24Modena
 

2000 metri

Anno Data Tipo Cr. Cat. Piazz. Prestaz. Vento Città  
201108/10PECM7 se- 2 5:53.58Jesolo
201114/09PECM1 su- 1 5:57.02Faenza
201101/07PECM2 su- 1 6:01.43Abano Terme
201026/09PECM1 se- 2 6:03.40Bologna
201129/05PECM3 su- 1 6:06.08Reggiolo
201102/04PMCM1 su- 1 6:08.6San Felice Sul Panaro
201015/09PECM2 su- 1 6:09.38Faenza
201030/05PECM1 su- 1 6:09.54Reggiolo
201009/10PECM4 se- 1 6:10.47Cles
201002/07PECM3 su- 1 6:11.59Abano Terme
201125/09PECM1 su- 1 6:14.44Bologna
201114/05PMCM1 su- 1 6:15.5Carpi
201017/04PMCM1 se- 1 6:19.4San Felice Sul Panaro
201015/05PMCM1 su- 1 6:21.7Carpi
201013/06PECM16 su- 1 6:29.91Fidenza
 

3000 metri

Anno Data Tipo Cr. Cat. Piazz. Prestaz. Vento Città  
201604/09PEPM1 su- 1 8:23.82Reggio Emilia
201820/05PEPM1 se- 1 8:32.27Modena
201506/09PEJM2 su- 1 8:33.24Reggio Emilia
201528/07PEJM3 se- 1 8:34.46Trento
201503/06PEJM3 se- 4 8:37.78Imola
201306/10PEAM4 se- 2 8:48.20Jesolo
201425/05PEJM1 su- 1 8:50.63Modena
201306/08PEAM19 se- 6 8:51.57Trento
201322/09PEAM1 su- 1 8:52.34Modena
201311/07PEAM4 se- 1 8:55.55Ferrara
201317/09PEAM1 su- 1 9:02.59Scandiano
201207/08PEAM4 se- 2 9:03.17Trento
201309/06PEAM3 su- 1 9:05.10Roma
201205/07PEAM8 se- 1 9:06.92Reggiolo
201227/05PEAM1 su- 1 9:09.40Bologna
201230/09PEAM11 se- 2 9:10.47Firenze
201224/06PEAM1 su- 1 9:12.42Acquaviva Delle Fonti
201309/05PEAM2 su- 1 9:16.87Reggio Emilia
201319/05PEAM1 su- 1 9:23.62Modena
201216/09PEAM3 su- 1 9:35.62Imola
 

5000 metri

Anno Data Tipo Cr. Cat. Piazz. Prestaz. Vento Città  
201802/06PEPM4 su- 1 14:22.46Agropoli
201625/06PEPM10 su- 1 14:25.15Rieti
201707/05PEPM1 se- 1 14:26.18Modena
201608/05PEPM1 se- 1 14:28.26Modena
201611/06PEPM2 su- 1 14:29.68Bressanone
201625/09PEPM5 su- 1 14:30.54Cinisello Balsamo
201824/06PEPM5 su- 1 14:30.55Modena
201710/06PEPM2 su- 1 14:33.60Firenze
201622/04PEPM5 se- 1 14:34.84Milano
201618/06PEPM3 su- 1 14:42.88Modena
201823/09PEPM5 su- 1 14:45.99Pavia
201806/05PEPM1 se- 1 14:49.05Modena
201513/06PEJM4 su- 1 14:52.29Rieti
201527/05PEJM1 se- 4 14:53.93Parma
201528/06PEJM1 se- 1 14:54.40Modena
201725/06PEPM2 su- 1 14:56.57Faenza
201916/06PESM8 su- 1 14:58.03Firenze
201912/05PESM1 se- 1 14:59.34Modena
201407/06PEJM4 su- 1 15:00.53Torino
201416/09PEJM3 su- 1 15:03.10Scandiano
201429/06PEJM1 su- 1 15:05.81Imola
201527/09PEJM10 su- 1 15:05.86Jesolo
201428/05PEJM1 se- 4 15:08.44Parma
201407/09PEJM1 su- 1 15:09.60Reggio Emilia
201424/06PEJM1 su- 1 15:14.87Scandiano
201510/05PEJM4 se- 1 15:18.06Modena
201415/06PEJM1 su- 1 15:18.72Modena
201411/10PEJM1 su- 1 15:18.86Imola
201411/05PEJM2 se- 1 15:27.47Modena
201312/05PEAM4 se- 1 15:39.23Imola
201325/06PEAM4 su- 1 15:51.58Scandiano
201330/06PEAM2 su- 1 15:51.75Parma
201307/09PEAM2 su- 1 16:00.62Modena
201209/09PEAM8 su- 1 16:10.48Modena
 

10000 metri

Anno Data Tipo Cr. Cat. Piazz. Prestaz. Vento Città  
201614/05PEPM7 su- 1 29:45.90Castelporziano
201604/06PEPM2 se- 1 29:50.01Tunisi
201713/05PEPM1 se- 1 30:03.58Roma
201812/05PEPM2 su- 1 30:07.77Ferrara
201609/04PEPM1 se- 3 30:09.63Cuneo
201918/05PESM10 su- 1 30:11.21Monselice
201722/04PEPM10 se- 4 30:14.01Marina Di Carrara
201809/06PEPM1 su- 1 30:18.10Jesolo
201516/07PEJM6 su- 1 30:29.55Eskilstuna
201703/06PEPM3 su- 1 30:47.69Alba
201520/06PEJM2 su- 1 30:51.48Modena
201724/06PEPM1 su- 1 31:01.33Beinasco
201417/05PEJM14 se- 1 32:20.81Ferrara
201420/06PEJM4 su- 1 32:26.95Trento
 

Corsa 30' Allievi

Anno Data Tipo Cr. Cat. Piazz. Prestaz. Vento Città  
201328/04PEAM1 su- 1 8826Rubiera
 

Corsa strada Km 10

Anno Data Tipo Cr. Cat. Piazz. Prestaz. Vento Città  
201708/10SMPM1 se- 1 29:54Rennes
201609/10SMPM3 se- 2 30:00Rennes
201709/09SEPM14 su- 1 30:06 Dalmine
201908/09SMSM11 su- 1 30:22Canelli
201817/06SMPM6 su- 1 30:26Telese Terme
201518/10SMJM3 se- 1 30:30Cremona
201610/09SMPM4 su- 1 30:31Foligno
201814/10SEPM4 su- 1 30:43Rennes
201927/04SMSM4 su- 1 30:50Carpi
201801/09SMPM16 su- 1 30:53Alberobello
201520/12SMJM2 su- 1 30:54Modena
201512/09SMJM26 su- 1 31:20Trecastagni
201421/09SMJM4 su- 1 31:23Udine
201421/12SMJM1 su- 1 31:35Modena
201921/06SMSM8 su- 1 31:40Treviso
201427/04SMJM4 su- 1 31:47Lovoleto
201402/08SMJM1 su- 1 31:53Isernia
201508/02SEJM1 su- 1 32:24Granarolo Emilia
201315/09SEAM2 su- 1 32:41Pompei
 

MARATONINA A

Anno Data Tipo Cr. Cat. Piazz. Prestaz. Vento Città  
201810/02SMPM23 su- 1 1h04:52Barcellona
201715/10SEPM7 su- 1 1h05:00Agropoli
201821/10SMPM10 su- 1 1h05:28Foligno
201712/02SMPM6 su- 1 1h05:35Verona
201816/12SMPM3 su- 1 1h05:46Cittadella
201606/03SMPM4 su- 1 1h05:50Fucecchio
201917/02SMSM8 su- 1 1h05:53Verona
201630/10SMPM1 su- 1 1h07:18Bari
201504/10SMJM1 su- 1 1h07:19Telese Terme
201616/10SMPM15 su- 1 1h07:42Cremona
201913/07PMSM8 su- 1 1h07:56Napoli
201620/03SEPM1 su- 1 1h08:23Reggio Emilia
201818/03SMPM3 su- 1 1h08:27Vittorio Veneto
201607/02SEPM1 su- 1 1h09:01Zola Predosa
201416/02SMJM64 su- 1 1h09:04Verona
201702/04SMPM4 su- 1 1h09:06Rovigo
 

MARATONINA B

Anno Data Tipo Cr. Cat. Piazz. Prestaz. Vento Città  
201726/02SEPM1 su- 1 1h08:38Salsomaggiore
 

MARATONA A

Anno Data Tipo Cr. Cat. Piazz. Prestaz. Vento Città  
201729/10SMPM899 su- 1 2h15:25Torino
201907/04SMSM8 su- 1 2h17:45Milano
201611/12SMPM8 su- 1 2h23:26Reggio Emilia
 

2000 siepi H91

Anno Data Tipo Cr. Cat. Piazz. Prestaz. Vento Città  
201212/05PEAM4 su- 1 6:51.51Modena
 

60 Hs H 60

Anno Data Tipo Cr. Cat. Piazz. Prestaz. Vento Città  
200821/05PMRM3 se- 2 12.5Castelfranco Emilia
 

Salto in alto/HJ

Anno Data Tipo Cr. Cat. Piazz. Prestaz. Vento Città  
200923/05PRM12 su- 1 1.10Castelfranco Emilia
 

Salto in lungo/LJ

Anno Data Tipo Cr. Cat. Piazz. Prestaz. Vento Città  
200821/05PRM7 su- 1 2.86Castelfranco Emilia
 

Peso/SP Kg 2.000

Anno Data Tipo Cr. Cat. Piazz. Prestaz. Vento Città  
200923/05PRM10 su- 1 7.72Castelfranco Emilia
200909/05PRM8 su- 1 7.02 Modena
 

Vortex

Anno Data Tipo Cr. Cat. Piazz. Prestaz. Vento Città  
200821/05PRM7 su- 1 21.17Castelfranco Emilia
200629/04PEM2 se- 1 15.21Carpi
 

TETRATHLON

Anno Data Tipo Cr. Cat. Piazz. Prestaz. Vento Città  
200923/05PRM7 su- 1 1496Castelfranco Emilia
200821/05PRM7 su- 1 1144Castelfranco Emilia
 

Attenzione: le schede-atleti sono composte automaticamente sulla base dei dati inseriti all'interno degli archivi nazionali aggiornati dal 2005 al 20-11-2019. Se un risultato non compare nelle graduatorie, quindi, è segno che lo stesso, con ogni probabilità, non è stato ancora inserito. Il processo di inserimento è di competenza dei Comitati Regionali sul cui territorio ha avuto luogo la manifestazione: eventuali segnalazioni per errori od omissioni, vanno dunque indirizzate agli stessi (potete utilizzare l'elenco con relativi contatti). Considerato però che solo le principali manifestazioni nazionali sono oggetto di inserimenti "in diretta" (sul posto di gara), mentre le altre, incluse le internazionali in programma all'estero, vengono inserite in tempi successivi, è opportuno attendere un ragionevole lasso di tempo prima di procedere ad una segnalazione.

Stickers


Non ventosi

GaraTipoPrestazioneVentoAnnoCittà
60 pianiPista 9.72009Castelfranco Emilia
300 pianiPista 51.32007San Felice Sul Panaro
600 METRIPista 1:48.32009Castelfranco Emilia
800 metriPista 2:05.482012Modena
1000 metriPista 2:42.52011Modena
1500 metriPista 4:03.192017Bologna
2000 metriPista 5:53.582011Jesolo
3000 metriPista 8:23.822016Reggio Emilia
5000 metriPista 14:22.462018Agropoli
10000 metriPista 29:45.902016Castelporziano
Corsa 30' AllieviPista 88262013Rubiera
Corsa strada Km 10Strada 29:542017Rennes
MARATONINA AStrada 1h04:522018Barcellona
MARATONINA APista 1h07:562019Napoli
MARATONINA BStrada 1h08:382017Salsomaggiore
MARATONA AStrada 2h15:252017Torino
2000 siepi H91Pista 6:51.512012Modena
60 Hs H 60Pista 12.52008Castelfranco Emilia
Salto in alto/HJPista 1.102009Castelfranco Emilia
Salto in lungo/LJPista 2.862008Castelfranco Emilia
Peso/SP Kg 2.000Pista 7.722009Castelfranco Emilia
VortexPista 21.172008Castelfranco Emilia
TETRATHLONPista 14962009Castelfranco Emilia

AnnoTipo mov.CategoriaSocietà
2019RinnovoSeniores MaschileC.S. AERONAUTICA MILITARE
2018TrasferimentoPromesse MaschileC.S. AERONAUTICA MILITARE
2018RinnovoPromesse MaschileA.S. LA FRATELLANZA 1874
2017RinnovoPromesse MaschileA.S. LA FRATELLANZA 1874
2016RinnovoPromesse MaschileA.S. LA FRATELLANZA 1874
2015RinnovoJuniores MaschileA.S. LA FRATELLANZA 1874
2014RinnovoJuniores MaschileA.S. LA FRATELLANZA 1874
2013RinnovoAllieviA.S. LA FRATELLANZA 1874
2012TrasferimentoAllieviA.S. LA FRATELLANZA 1874
2011RinnovoCadettiATL. FRIGNANO - POL. PAVULLESE
2010RinnovoCadettiATL. FRIGNANO - POL. PAVULLESE
2009RinnovoRagazzi MaschileATL. FRIGNANO - POL. PAVULLESE
2008RinnovoRagazzi MaschileATL. FRIGNANO - POL. PAVULLESE
2007RinnovoEsordienti MaschileATL. FRIGNANO - POL. PAVULLESE
2006NuovoEsordienti MaschileATL. FRIGNANO - POL. PAVULLESE